Location: Issor
(43.1000°N, 0.6667°W)
Time: 09:36:04
(UTC+00:00)

Daily predictions for brighter satellites

Satellite Brightness Start Highest point End
(mag) Time Altitude Azimuth Time Altitude Azimuth Time Altitude Azimuth
Cosmos 1461 3.4 17:39:41 10° S 17:43:40 43° ESE 17:47:52 10° NE
Cosmos 1763 Rocket 3.8 17:39:13 10° N 17:44:09 43° ENE 17:48:59 10° SE
Cosmos 1892 3.0 17:41:53 10° SSE 17:45:25 43° E 17:49:00 10° NNE
Cosmos 1726 Rocket 4.5 17:42:56 10° NNE 17:46:35 26° ENE 17:50:13 10° SE
ATLAS 2AS CENTAUR R/B 2.8 17:40:53 10° NNW 17:47:50 60° NE 17:54:22 10° SE
Cosmos 2227 4.3 17:44:00 10° NNW 17:49:49 88° WSW 17:55:34 10° SSE
Cosmos 1844 4.3 17:45:19 10° N 17:50:37 35° NE 17:55:51 10° ESE
Gblst 52 Del rocket 4.4 17:45:25 10° WSW 17:51:09 66° NNW 17:56:38 10° NE
SL-08 ROCKET BODY 4.4 17:45:42 10° N 17:51:30 58° E 17:57:13 10° SSE
Cosmos 1825 2.9 17:48:42 10° SSE 17:51:58 31° E 17:55:15 10° NNE
IKONOS-2 4.5 17:48:18 10° NNE 17:52:34 80° ESE 17:56:49 10° S
Cosmos 2219 Rocket 3.6 17:49:38 10° SE 17:53:04 17° E 17:56:29 10° ENE
Cosmos 2360 Rocket 2.7 17:48:09 10° S 17:53:18 39° ESE 17:58:31 10° NE
Cosmos 540 Rocket 4.0 17:50:36 10° N 17:55:19 35° ENE 17:59:59 10° SE
ADEOS 3.9 17:53:57 10° S 17:59:09 73° WSW 18:04:23 10° NNW
CZ-4 R/B 3.0 18:00:23 10° E 18:02:49 16° ENE 18:05:14 10° NNE
CZ-4C R/B 3.4 17:59:19 10° NNE 18:02:58 46° E 18:06:25 10° S
Cosmos 1655 Rocket 4.4 17:58:05 10° NNW 18:04:18 71° W 18:10:28 10° S
Okean O Rocket 3.1 18:02:14 10° ESE 18:05:00 17° ENE 18:07:47 10° NNE
Cosmos 2333 Rocket 3.0 18:00:12 10° SSE 18:05:06 32° ESE 18:10:03 10° NE
Cosmos 2322 Rocket 2.2 18:00:32 10° SSW 18:06:06 73° ESE 18:11:43 10° NNE
Atlas Centaur 2 4.4 18:03:00 10° SSW 18:09:08 25° SSE 18:15:38 10° ESE
BlueWalker 3 3.9 18:09:31 10° NW 18:12:16 18° N 18:14:55 10° NE
RESURS DK-1 2.9 18:10:15 10° N 18:14:06 37° ENE 18:17:55 10° SE
Cosmos 1340 3.6 18:12:08 10° NNE 18:15:11 24° ENE 18:18:12 10° SE
COSMOS 2428 4.1 18:16:51 10° SE 18:20:23 17° E 18:21:43 16° E
In-Cosmos 22 Rocket 4.3 18:15:08 10° S 18:20:54 71° E 18:26:43 10° NNE
SL-4 R/B 3.3 18:18:15 10° NW 18:21:02 21° N 18:22:55 15° NE
SL-16 R/B 2.8 18:15:52 10° SW 18:21:28 61° WNW 18:27:07 10° NNE
ISS -1.9 18:18:30 10° WNW 18:21:35 32° SW 18:24:38 10° SSE
SKYMED 2 3.6 18:17:20 10° N 18:21:43 83° WNW 18:26:02 10° SSW
Cosmos 676 Rocket 4.1 18:18:12 10° SSW 18:23:30 80° WNW 18:28:48 10° NNE
Cosmos 1553 Rocket 4.0 18:19:23 10° SSE 18:25:16 55° E 18:31:15 10° NNE
Cosmos 2058 Rocket 3.5 18:22:47 10° N 18:26:56 39° ENE 18:31:06 10° SSE
YAOGAN 1 2.8 18:23:31 10° SE 18:27:37 45° ENE 18:31:44 10° N
CZ-4B R/B 4.3 18:27:33 10° S 18:31:24 41° W 18:35:06 10° NNW
Genesis I 3.1 18:31:54 10° SSW 18:35:50 88° SE 18:38:52 17° NE
Cosmos 1633 2.3 18:33:11 10° S 18:36:32 89° W 18:39:53 10° N
BREEZE-M DEB (TANK) 4.1 18:17:57 10° SW 18:37:00 73° SSE 18:40:19 22° ENE
IRIDIUM 106 4.3 18:34:16 10° N 18:39:27 62° E 18:44:36 10° SSE
Meteor 2-12 Rocket 4.4 18:37:31 10° N 18:43:38 89° E 18:49:40 10° S
PAYLOAD B 4.1 18:38:46 10° SSE 18:44:17 85° ENE 18:49:49 10° NNW
Cosmos 2322 4.2 18:40:33 10° S 18:45:46 38° ESE 18:48:46 22° NE
Cosmos 44 Rocket 3.2 18:44:45 10° SSW 18:49:19 57° ESE 18:51:43 27° NE
NOAA 15 4.5 18:50:19 10° SSE 18:55:33 84° ENE 19:00:52 10° NNW
Cosmos 1869 3.2 18:52:22 10° N 18:56:18 83° W 19:00:14 10° S
Meteor 1-27 4.2 18:50:35 10° N 18:56:23 89° ENE 19:02:04 10° S
S3M 4.0 18:54:45 10° S 19:01:02 63° E 19:07:20 10° NNE
Cosmos 1892 Rocket 4.4 18:59:15 10° SSW 19:03:33 52° W 19:07:52 10° N
PSLV R/B 4.2 19:01:10 10° S 19:04:45 57° W 19:08:26 10° NNW
Cosmos 1844 Rocket 3.7 19:10:03 10° NW 19:15:19 45° WSW 19:20:35 10° S
Lacrosse 5 3.4 19:17:17 10° W 19:21:46 30° NNW 19:24:05 21° NNE
CZ-4B R/B 3.5 19:17:08 10° S 19:22:25 65° WSW 19:27:51 10° NNW
Cosmos 2315 Rocket 4.0 19:16:30 10° SSE 19:22:38 56° E 19:28:50 10° NNE
Lacrosse 5 rocket 1.3 19:19:40 10° NW 19:22:52 66° WNW 19:22:52 66° WNW
Spot 1 4.0 19:25:56 42° N 19:27:11 73° WNW 19:31:14 10° SSW
BREEZE-M DEB (TANK) 3.4 19:24:09 10° WNW 19:28:05 82° NNE 19:30:46 43° E
Cosmos 1814 Rocket 3.9 19:24:50 10° NNW 19:30:12 66° ENE 19:30:17 66° ENE
Cosmos 2219 Rocket 2.4 19:30:47 10° SSW 19:36:20 70° WNW 19:39:20 28° NNE
Cosmos 1626 Rocket 3.7 19:33:02 10° SSW 19:37:18 69° W 19:37:38 66° NW
CZ-4 R/B 2.3 19:33:20 10° S 19:37:19 48° W 19:41:17 10° NNW
Cosmos 2360 Rocket 3.7 19:32:16 10° WSW 19:37:20 33° NW 19:42:27 10° N
ATLAS 2AS CENTAUR R/B 4.5 19:32:33 10° NW 19:38:15 29° WSW 19:43:42 10° SSW
USA 81 4.1 19:34:00 10° S 19:39:16 78° W 19:44:34 10° N
Cosmos 841 Rocket 4.4 19:34:34 10° NNW 19:39:38 48° WSW 19:44:39 10° S
Okean O Rocket 2.3 19:36:38 10° S 19:40:55 52° W 19:45:15 10° NNW
Cosmos 2333 Rocket 3.4 19:43:56 10° SW 19:49:13 40° WNW 19:53:26 16° N
Cosmos 2278 Rocket 3.4 19:44:42 10° NNW 19:47:46 29° N 19:47:46 29° N
Cosmos 2322 Rocket 4.5 19:46:44 10° W 19:50:45 20° NW 19:54:48 10° N
BlueWalker 3 4.4 19:48:29 10° NW 19:49:43 17° NNW 19:49:43 17° NNW
Okean 1-7 Rocket 4.4 19:47:52 10° SSW 19:52:09 50° WNW 19:52:29 49° WNW
Cosmos 1932 4.4 19:49:49 10° SSW 19:56:14 87° NW 19:56:59 71° NNE
Atlas Centaur 2 3.9 19:50:34 10° WSW 19:57:47 34° S 19:58:55 32° SSE
SL-4 R/B 4.4 19:57:23 10° NW 19:58:14 16° NW 19:58:14 16° NW
COSMOS 2428 2.9 19:58:19 10° SSW 20:03:49 69° WNW 20:03:49 69° WNW
CSL-04 Debris 4.4 20:04:49 66° W 20:04:49 66° W 20:10:00 10° NNW
Cosmos 1709 Rocket 4.3 20:01:07 10° NNW 20:07:11 62° W 20:11:34 19° SSW
CSL-04 Rocket 4.3 20:11:16 49° NW 20:11:16 49° NW 20:15:20 10° NNW
BREEZE-M DEB (TANK) 4.2 20:08:32 10° WNW 20:34:28 82° SW 20:35:12 77° SSE
